timestamp,wind_dir_avg,wind_spd_avg,wind_spd_max_dir,wind_spd_gust,battery_voltage,lat,long
2023-05-18 00:04:00+00:00,202.0,8.69,217.0,10.74,12.41,47.59359,-54.27349
2023-05-18 00:14:00+00:00,215.0,7.23,215.0,7.9,12.33,47.59359,-54.27349
2023-05-18 00:24:00+00:00,199.0,8.87,195.0,11.11,12.33,47.59359,-54.27349
2023-05-18 00:34:00+00:00,203.0,8.09,199.0,10.17,12.33,47.59359,-54.27349
2023-05-18 00:44:00+00:00,204.0,6.97,214.0,7.78,12.33,47.59359,-54.27349
2023-05-18 00:54:00+00:00,213.0,7.14,209.0,8.07,12.33,47.59359,-54.27349
2023-05-18 01:04:00+00:00,223.0,5.82,215.0,7.28,12.33,47.59359,-54.27349
2023-05-18 01:14:00+00:00,219.0,5.8,223.0,7.05,12.33,47.59359,-54.27349
2023-05-18 01:24:00+00:00,223.0,5.67,234.0,7.29,12.33,47.59359,-54.27349
2023-05-18 01:34:00+00:00,227.0,5.44,232.0,6.59,12.33,47.59359,-54.27349
2023-05-18 01:44:00+00:00,222.0,5.39,220.0,6.68,12.33,47.59359,-54.27349
2023-05-18 01:54:00+00:00,230.0,5.65,235.0,6.29,12.33,47.59359,-54.27349
2023-05-18 02:04:00+00:00,225.0,5.4,226.0,6.11,12.33,47.59359,-54.27349
2023-05-18 02:14:00+00:00,217.0,5.36,223.0,6.62,12.25,47.59359,-54.27349
2023-05-18 02:24:00+00:00,209.0,6.08,210.0,6.9,12.25,47.59359,-54.27349
2023-05-18 02:34:00+00:00,211.0,5.96,212.0,7.12,12.25,47.59359,-54.27349
2023-05-18 02:44:00+00:00,213.0,6.85,212.0,7.7,12.25,47.59359,-54.27349
2023-05-18 02:54:00+00:00,189.0,4.59,189.0,5.35,12.25,47.59359,-54.27349
2023-05-18 03:04:00+00:00,186.0,5.37,187.0,5.97,12.25,47.59359,-54.27349
2023-05-18 03:14:00+00:00,215.0,6.08,229.0,7.46,12.25,47.59359,-54.27349
2023-05-18 03:24:00+00:00,202.0,5.44,203.0,6.84,12.25,47.59359,-54.27349
2023-05-18 03:34:00+00:00,214.0,6.02,217.0,6.61,12.25,47.59359,-54.27349
2023-05-18 03:44:00+00:00,228.0,4.69,240.0,6.59,12.25,47.59359,-54.27349
2023-05-18 03:54:00+00:00,227.0,4.33,238.0,7.03,12.25,47.59359,-54.27349
2023-05-18 04:04:00+00:00,239.0,6.37,240.0,7.1,12.25,47.59359,-54.27349
2023-05-18 04:14:00+00:00,199.0,4.2,224.0,5.29,12.25,47.59359,-54.27349
2023-05-18 04:24:00+00:00,231.0,7.05,232.0,7.36,12.25,47.59359,-54.27349
2023-05-18 04:34:00+00:00,219.0,5.51,234.0,7.3,12.25,47.59359,-54.27349
2023-05-18 04:44:00+00:00,196.0,5.54,204.0,8.06,12.25,47.59359,-54.27349
2023-05-18 04:54:00+00:00,217.0,4.83,231.0,5.82,12.25,47.59359,-54.27349
2023-05-18 05:04:00+00:00,207.0,6.0,212.0,6.75,12.25,47.59359,-54.27349
2023-05-18 05:14:00+00:00,208.0,5.91,212.0,6.41,12.25,47.59359,-54.27349
2023-05-18 05:24:00+00:00,220.0,6.07,219.0,7.04,12.25,47.59359,-54.27349
2023-05-18 05:34:00+00:00,219.0,6.43,219.0,7.21,12.25,47.59359,-54.27349
2023-05-18 05:44:00+00:00,213.0,5.42,213.0,6.1,12.25,47.59359,-54.27349
2023-05-18 05:54:00+00:00,220.0,5.34,224.0,6.09,12.25,47.59359,-54.27349
2023-05-18 06:04:00+00:00,213.0,5.4,217.0,5.83,12.25,47.59359,-54.27349
2023-05-18 06:14:01+00:00,208.0,4.92,208.0,5.42,12.17,47.59359,-54.27349
2023-05-18 06:24:01+00:00,199.0,5.25,200.0,5.73,12.17,47.59359,-54.27349
2023-05-18 06:34:01+00:00,195.0,5.26,195.0,5.73,12.17,47.59359,-54.27349
2023-05-18 06:44:01+00:00,214.0,5.14,214.0,5.61,12.17,47.59359,-54.27349
2023-05-18 06:54:01+00:00,218.0,5.88,216.0,6.4,12.17,47.59359,-54.27349
2023-05-18 07:04:01+00:00,214.0,5.43,214.0,5.87,12.17,47.59359,-54.27349
2023-05-18 07:14:01+00:00,232.0,4.91,244.0,7.32,12.17,47.59359,-54.27349
2023-05-18 07:24:01+00:00,229.0,5.3,239.0,7.57,12.17,47.59359,-54.27349
2023-05-18 07:34:01+00:00,212.0,4.9,221.0,6.09,12.17,47.59359,-54.27349
2023-05-18 07:44:01+00:00,257.0,2.33,262.0,4.73,12.17,47.59359,-54.27349
2023-05-18 07:54:01+00:00,290.0,9.02,290.0,11.46,12.17,47.59359,-54.27349
2023-05-18 08:04:01+00:00,330.0,9.26,324.0,11.84,12.17,47.59359,-54.27349
2023-05-18 08:14:00+00:00,333.0,9.81,327.0,11.47,12.09,47.59359,-54.27349
2023-05-18 08:24:00+00:00,330.0,8.65,334.0,10.44,12.09,47.59359,-54.27349
2023-05-18 08:34:00+00:00,328.0,7.9,328.0,8.99,12.09,47.59359,-54.27349
2023-05-18 08:44:00+00:00,328.0,7.68,323.0,8.65,12.09,47.59359,-54.27349
2023-05-18 08:54:00+00:00,340.0,8.68,341.0,9.69,12.09,47.59359,-54.27349
2023-05-18 09:04:00+00:00,344.0,6.24,330.0,7.17,12.09,47.59359,-54.27349
2023-05-18 09:14:01+00:00,334.0,6.7,338.0,7.75,12.09,47.59359,-54.27349
2023-05-18 09:24:01+00:00,329.0,5.64,330.0,6.32,12.09,47.59359,-54.27349
2023-05-18 09:34:01+00:00,329.0,5.38,323.0,6.68,12.09,47.59359,-54.27349
2023-05-18 09:44:01+00:00,340.0,10.1,340.0,11.98,12.09,47.59359,-54.27349
2023-05-18 09:54:01+00:00,332.0,9.37,332.0,11.54,12.09,47.59359,-54.27349
2023-05-18 10:04:01+00:00,325.0,7.42,329.0,8.16,12.09,47.59359,-54.27349
2023-05-18 10:14:00+00:00,325.0,9.57,327.0,11.18,13.13,47.59359,-54.27349
2023-05-18 10:24:00+00:00,324.0,8.66,321.0,10.02,13.13,47.59359,-54.27349
2023-05-18 10:34:00+00:00,309.0,9.01,309.0,10.09,13.13,47.59359,-54.27349
2023-05-18 10:44:00+00:00,321.0,9.48,323.0,10.95,13.13,47.59359,-54.27349
2023-05-18 10:54:00+00:00,320.0,8.68,322.0,9.8,13.13,47.59359,-54.27349
2023-05-18 11:04:00+00:00,319.0,8.49,320.0,10.21,13.13,47.59359,-54.27349
2023-05-18 11:14:00+00:00,317.0,7.32,311.0,9.43,13.44,47.59359,-54.27349
2023-05-18 11:24:00+00:00,306.0,5.97,298.0,8.74,13.44,47.59359,-54.27349
2023-05-18 11:34:00+00:00,305.0,8.92,305.0,10.04,13.44,47.59359,-54.27349
2023-05-18 11:44:00+00:00,321.0,9.36,320.0,10.16,13.44,47.59359,-54.27349
2023-05-18 11:54:00+00:00,319.0,5.5,312.0,6.63,13.44,47.59359,-54.27349
2023-05-18 12:04:00+00:00,307.0,3.54,306.0,4.05,13.44,47.59359,-54.27349
2023-05-18 12:14:00+00:00,297.0,7.53,299.0,8.12,13.6,47.59359,-54.27349
2023-05-18 12:24:00+00:00,291.0,6.84,289.0,7.68,13.6,47.59359,-54.27349
2023-05-18 12:34:00+00:00,312.0,6.53,305.0,7.32,13.6,47.59359,-54.27349
2023-05-18 12:44:00+00:00,281.0,7.23,280.0,8.68,13.6,47.59359,-54.27349
2023-05-18 12:54:00+00:00,289.0,5.27,289.0,6.67,13.6,47.59359,-54.27349
2023-05-18 13:04:00+00:00,263.0,6.58,263.0,7.09,13.6,47.59359,-54.27349
2023-05-18 13:14:00+00:00,252.0,7.32,260.0,8.6,13.68,47.59359,-54.27349
2023-05-18 13:24:00+00:00,257.0,5.87,259.0,6.75,13.68,47.59359,-54.27349
2023-05-18 13:34:00+00:00,259.0,5.0,259.0,5.55,13.68,47.59359,-54.27349
2023-05-18 13:44:00+00:00,271.0,4.9,276.0,5.37,13.68,47.59359,-54.27349
2023-05-18 13:54:00+00:00,276.0,3.36,294.0,5.05,13.68,47.59359,-54.27349
2023-05-18 14:04:00+00:00,268.0,6.55,264.0,7.49,13.68,47.59359,-54.27349
2023-05-18 14:14:00+00:00,269.0,11.91,268.0,14.42,13.84,47.59359,-54.27349
2023-05-18 14:24:00+00:00,271.0,12.78,274.0,14.47,13.84,47.59359,-54.27349
2023-05-18 14:34:00+00:00,265.0,11.51,269.0,14.33,13.84,47.59359,-54.27349
2023-05-18 14:44:00+00:00,277.0,13.13,278.0,14.56,13.84,47.59359,-54.27349
2023-05-18 14:54:00+00:00,271.0,12.7,272.0,14.44,13.84,47.59359,-54.27349
2023-05-18 15:04:00+00:00,274.0,11.01,270.0,14.52,13.84,47.59359,-54.27349
2023-05-18 15:14:00+00:00,279.0,13.04,280.0,15.03,13.84,47.59359,-54.27349
2023-05-18 15:24:00+00:00,272.0,13.05,275.0,14.58,13.84,47.59359,-54.27349
2023-05-18 15:34:00+00:00,288.0,12.67,290.0,14.9,13.84,47.59359,-54.27349
2023-05-18 15:44:00+00:00,302.0,6.99,297.0,7.92,13.84,47.59359,-54.27349
2023-05-18 15:54:00+00:00,285.0,8.34,280.0,14.04,13.84,47.59359,-54.27349
2023-05-18 16:04:00+00:00,316.0,11.64,310.0,14.6,13.84,47.59359,-54.27349
2023-05-18 16:14:00+00:00,322.0,10.19,328.0,12.23,13.68,47.59359,-54.27349
2023-05-18 16:24:00+00:00,322.0,10.66,324.0,12.6,13.68,47.59359,-54.27349
2023-05-18 16:34:00+00:00,315.0,9.77,313.0,11.64,13.68,47.59359,-54.27349
2023-05-18 16:44:00+00:00,309.0,6.59,307.0,7.97,13.68,47.59359,-54.27349
2023-05-18 16:54:00+00:00,287.0,5.58,259.0,6.88,13.68,47.59359,-54.27349
2023-05-18 17:04:00+00:00,275.0,13.16,277.0,14.38,13.68,47.59359,-54.27349
2023-05-18 17:14:00+00:00,278.0,14.07,281.0,15.57,13.92,47.59359,-54.27349
2023-05-18 17:24:00+00:00,271.0,14.7,274.0,16.45,13.92,47.59359,-54.27349
2023-05-18 17:34:00+00:00,273.0,12.3,279.0,17.18,13.92,47.59359,-54.27349
2023-05-18 17:44:00+00:00,274.0,9.76,274.0,13.5,13.92,47.59359,-54.27349
2023-05-18 17:54:00+00:00,269.0,9.17,271.0,13.68,13.92,47.59359,-54.27349
2023-05-18 18:04:00+00:00,261.0,12.68,262.0,14.1,13.92,47.59359,-54.27349
2023-05-18 18:14:00+00:00,266.0,12.91,263.0,14.5,13.84,47.59359,-54.27349
2023-05-18 18:24:00+00:00,270.0,13.66,269.0,14.83,13.84,47.59359,-54.27349
2023-05-18 18:34:00+00:00,260.0,12.49,264.0,14.66,13.84,47.59359,-54.27349
2023-05-18 18:44:00+00:00,261.0,13.04,262.0,14.6,13.84,47.59359,-54.27349
2023-05-18 18:54:00+00:00,267.0,13.46,266.0,14.89,13.84,47.59359,-54.27349
2023-05-18 19:04:00+00:00,282.0,13.98,282.0,16.01,13.84,47.59359,-54.27349
2023-05-18 19:14:00+00:00,308.0,10.25,311.0,13.08,13.68,47.59359,-54.27349
2023-05-18 19:24:00+00:00,314.0,7.72,321.0,8.76,13.68,47.59359,-54.27349
2023-05-18 19:34:00+00:00,291.0,4.72,293.0,5.35,13.68,47.59359,-54.27349
2023-05-18 19:44:00+00:00,277.0,13.7,277.0,14.62,13.68,47.59359,-54.27349
2023-05-18 19:54:00+00:00,279.0,10.26,278.0,13.46,13.68,47.59359,-54.27349
2023-05-18 20:04:00+00:00,267.0,8.71,272.0,12.96,13.68,47.59359,-54.27349
2023-05-18 20:14:00+00:00,279.0,8.89,278.0,13.14,13.68,47.59359,-54.27349
2023-05-18 20:24:00+00:00,274.0,13.67,277.0,14.99,13.68,47.59359,-54.27349
2023-05-18 20:34:00+00:00,276.0,9.42,275.0,13.08,13.68,47.59359,-54.27349
2023-05-18 20:44:00+00:00,279.0,11.72,285.0,15.1,13.68,47.59359,-54.27349
2023-05-18 20:54:00+00:00,279.0,11.25,279.0,13.48,13.68,47.59359,-54.27349
2023-05-18 21:04:00+00:00,284.0,9.21,281.0,13.32,13.68,47.59359,-54.27349
2023-05-18 21:14:00+00:00,266.0,12.51,264.0,14.56,13.68,47.59359,-54.27349
2023-05-18 21:24:00+00:00,270.0,7.81,268.0,10.67,13.68,47.59359,-54.27349
2023-05-18 21:34:00+00:00,281.0,11.19,285.0,13.45,13.68,47.59359,-54.27349
2023-05-18 21:44:00+00:00,274.0,8.45,271.0,14.23,13.68,47.59359,-54.27349
2023-05-18 21:54:00+00:00,279.0,8.88,276.0,12.79,13.68,47.59359,-54.27349
2023-05-18 22:04:00+00:00,282.0,9.52,282.0,13.93,13.68,47.59359,-54.27349
2023-05-18 22:14:00+00:00,273.0,12.63,276.0,14.44,13.53,47.59359,-54.27349
2023-05-18 22:24:00+00:00,272.0,8.25,275.0,12.63,13.53,47.59359,-54.27349
2023-05-18 22:34:00+00:00,265.0,6.79,262.0,7.44,13.53,47.59359,-54.27349
2023-05-18 22:44:00+00:00,263.0,6.19,262.0,7.39,13.53,47.59359,-54.27349
2023-05-18 22:54:00+00:00,262.0,5.76,263.0,7.0,13.53,47.59359,-54.27349
2023-05-18 23:04:00+00:00,255.0,6.12,257.0,7.35,13.53,47.59359,-54.27349
2023-05-18 23:14:00+00:00,239.0,5.43,232.0,6.14,12.97,47.59359,-54.27349
2023-05-18 23:24:00+00:00,235.0,4.99,239.0,6.12,12.97,47.59359,-54.27349
2023-05-18 23:34:00+00:00,238.0,5.58,237.0,6.1,12.97,47.59359,-54.27349
2023-05-18 23:44:00+00:00,242.0,5.06,248.0,7.02,12.97,47.59359,-54.27349
2023-05-18 23:54:00+00:00,261.0,7.65,260.0,8.8,12.97,47.59359,-54.27349
